Location: Mahannah Oil Field
(37.4664°N, 96.6003°W)
Time: 16:34:17
(UTC+00:00)

Vanguard 2 Rocket - Pass Details

Date: 27 June 2021
Orbit: 554 x 3325 km, 32.9° (Epoch: 24 July)

Event Time Altitude Azimuth Distance (km) Brightness Sun altitude
Rises 03:56:41 0° 279° (W) 7,314 12.2 -19.4°
Reaches altitude 10° 04:01:47 10° 276° (W) 6,260 11.7 -20.0°
Maximum altitude 04:20:50 62° 203° (SSW) 2,920 9.2 -22.1°
Enters shadow 04:28:39 31° 136° (SE) 3,347 9.2 -22.9°
